Weather in Radivilov

Ukraine / Rovno District     50°07′55″N   25°14′57″E
temp.,
°C
wind,
m/s
gust,
m/s
humid.,
%
clouds,
%
prec.,
mm/h
press.,
hPa
HPBL,
m
19 january, wed
wed1923:00−3nw511835 0.0 1031434
02:00−3wnw499562 0.0 1032308
05:00−2wnw598798 0.0 1030565
08:00−3wsw5119561 0.0 1029368
11:00−1wsw6108558 0.0 1028511
14:000w6118495 0.0 1025744
17:000wsw61187100 0.0 1022409
20:00−1wsw41081100 0.0 1021309
20 january, thu
thu2023:00−2sw4108399 0.0 1019274
02:00−3sw41182100 0.0 1016279
05:00−3sw51677100 0.0 1013528
08:00−2sw8177679 0.0 1011633
11:000wsw91772100 0.0 1009944
14:00+1wsw81285100 0.3 10081036
17:00−1sw713825 0.0 1007504
20:00−2w71377100 1.0 10081129
21 january, fri
fri2123:00−3w81383100 0.1 10091018
02:00−3w81474100 0.1 10101127
05:00−4w91573100 0.0 10101165
08:00−4w101677100 0.1 10111080
11:00−4w111885100 0.1 10111092
14:00−2w101680100 0.2 10101163
17:00−3w91686100 0.1 10111083
20:00−3w9158499 0.2 10121053
22 january, sat
sat2223:00−3w91586100 0.1 1012996
02:00−3w91490100 0.3 1012979
05:00−4w81487100 0.2 1012926
08:00−4w81493100 0.6 1012925
11:00−3wnw91488100 0.6 10131000
14:00−3nw6984100 1.4 1014953
17:00−4nw51088100 0.2 1016653
20:00−5nnw61091100 0.4 1019701
23 january, sun
sun2323:00−5nnw5991100 0.1 1021590
02:00−5wnw4894100 0.4 1022498
05:00−5nw4795100 0.7 1022592
08:00−5n3795100 1.2 1023512
11:00−5nne5687100 0.1 1025646
14:00−5nne5681100 0.3 1026822
17:00−6nne4792100 0.1 1029507
20:00−7nne489290 0.1 1031251